This demonstration page uses our WeatherBlox Daily Observations layout. Learn more.

Left ArrowRight Arrow

Hourly Observations for May 14, 2017

Temp ( °F °C ) Dew Point ( °F °C ) Humidity (%) Winds ( mph kmh ) Pressure ( in mb ) Visibility ( mi km ) Precip ( " mm )
12:54 am 00:54 Clear 61 16.1 51 10.6 70 70 S 9 15 29.76 1008 10 16.0934 0 0
1:54 am 01:54 Clear 60 15.6 52 11.1 75 75 S 9 15 29.75 1008 10 16.0934 0 0
2:54 am 02:54 Clear 63 17.2 52 11.1 68 68 S 13 20 29.74 1007 10 16.0934 0 0
3:54 am 03:54 Clear 63 17.2 52 11.1 68 68 S 15 24 29.72 1006 10 16.0934 0 0
4:54 am 04:54 Clear 62 16.7 52 11.1 70 70 S 13 20 29.72 1006 10 16.0934 0 0
5:54 am 05:54 Clear with Light Rain 62 16.7 53 11.7 73 73 S 12 19 29.72 1007 10 16.0934 0 0.0254
6:54 am 06:54 Mostly Sunny 61 16.1 52 11.1 72 72 SSE 12 19 29.72 1007 10 16.0934 0.01 0.254
7:54 am 07:54 Sunny 63 17.2 53 11.7 70 70 S 12 19 29.74 1007 10 16.0934 0 0
8:54 am 08:54 Sunny 68 20 54 12.2 61 61 S 13 20 29.73 1007 10 16.0934 0 0
9:54 am 09:54 Sunny 74 23.3 53 11.7 48 48 SSW 20 31 29.7 1006 10 16.0934 0 0
10:54 am 10:54 Sunny 77 25 53 11.7 43 43 SSW 18 30 29.7 1006 10 16.0934 0 0
11:54 am 11:54 Sunny 80 26.7 54 12.2 41 41 SW 16 26 29.69 1005 10 16.0934 0 0
12:54 pm 12:54 Sunny 83 28.3 54 12.2 37 37 SSW 17 28 29.67 1005 10 16.0934 0 0
1:54 pm 13:54 Sunny 85 29.4 55 12.8 36 36 SW 18 30 29.67 1005 10 16.0934 0 0
2:54 pm 14:54 Sunny 86 30 57 13.9 37 37 S 13 20 29.66 1005 10 16.0934 0 0
3:54 pm 15:54 Sunny 89 31.7 54 12.2 30 30 SW 20 31 29.65 1004 10 16.0934 0 0
4:54 pm 16:54 Sunny 88 31.1 55 12.8 33 33 SSW 12 19 29.65 1004 10 16.0934 0 0
5:54 pm 17:54 Sunny 88 31.1 53 11.7 30 30 SW 12 19 29.65 1004 10 16.0934 0 0
6:54 pm 18:54 Sunny 88 31.1 53 11.7 30 30 WSW 8 13 29.66 1004 10 16.0934 0 0
7:54 pm 19:54 Sunny 86 30 54 12.2 33 33 W 5 7 29.67 1005 10 16.0934 0 0
8:54 pm 20:54 Clear 80 26.7 56 13.3 44 44 NW 5 7 29.69 1005 10 16.0934 0 0
9:54 pm 21:54 Clear 72 22.2 57 13.9 59 59 Calm 29.72 1006 10 16.0934 0 0
10:54 pm 22:54 Clear 70 21.1 56 13.3 61 61 Calm 29.73 1007 10 16.0934 0 0
11:54 pm 23:54 Clear 66 18.9 56 13.3 70 70 Calm 29.74 1007 10 16.0934 0 0

Powered by AerisWeather